#datetime,building,power
2023-06-19T00:00:00,atd,17.03
2023-06-19T00:01:00,atd,28.21
2023-06-19T00:02:00,atd,17.40
2023-06-19T00:03:00,atd,17.98
2023-06-19T00:04:00,atd,19.19
2023-06-19T00:05:00,atd,24.31
2023-06-19T00:06:00,atd,21.03
2023-06-19T00:07:00,atd,19.48
2023-06-19T00:08:00,atd,21.54
2023-06-19T00:09:00,atd,22.29
2023-06-19T00:10:00,atd,22.54
2023-06-19T00:11:00,atd,26.65
2023-06-19T00:12:00,atd,25.22
2023-06-19T00:13:00,atd,23.43
2023-06-19T00:14:00,atd,25.80
2023-06-19T00:15:00,atd,20.66
2023-06-19T00:16:00,atd,19.29
2023-06-19T00:17:00,atd,19.15
2023-06-19T00:18:00,atd,18.84
2023-06-19T00:19:00,atd,22.09
2023-06-19T00:20:00,atd,21.53
2023-06-19T00:21:00,atd,21.75
2023-06-19T00:22:00,atd,23.25
2023-06-19T00:23:00,atd,22.66
2023-06-19T00:24:00,atd,25.37
2023-06-19T00:25:00,atd,27.16
2023-06-19T00:26:00,atd,31.38
2023-06-19T00:27:00,atd,29.17
2023-06-19T00:28:00,atd,28.62
2023-06-19T00:29:00,atd,28.43
2023-06-19T00:30:00,atd,27.21
2023-06-19T00:31:00,atd,33.58
2023-06-19T00:32:00,atd,28.48
2023-06-19T00:33:00,atd,27.80
2023-06-19T00:34:00,atd,26.77
2023-06-19T00:35:00,atd,22.80
2023-06-19T00:36:00,atd,20.94
2023-06-19T00:37:00,atd,16.98
2023-06-19T00:38:00,atd,27.27
2023-06-19T00:39:00,atd,17.35
2023-06-19T00:40:00,atd,15.67
2023-06-19T00:41:00,atd,21.90
2023-06-19T00:42:00,atd,22.45
2023-06-19T00:43:00,atd,19.35
2023-06-19T00:44:00,atd,17.41
2023-06-19T00:45:00,atd,19.00
2023-06-19T00:46:00,atd,16.52
2023-06-19T00:47:00,atd,17.73
2023-06-19T00:48:00,atd,23.75
2023-06-19T00:49:00,atd,18.16
2023-06-19T00:50:00,atd,17.91
2023-06-19T00:51:00,atd,18.36
2023-06-19T00:52:00,atd,16.12
2023-06-19T00:53:00,atd,16.14
2023-06-19T00:54:00,atd,17.47
2023-06-19T00:55:00,atd,18.67
2023-06-19T00:56:00,atd,19.77
2023-06-19T00:57:00,atd,20.67
2023-06-19T00:58:00,atd,21.47
2023-06-19T00:59:00,atd,17.46
2023-06-19T01:00:00,atd,17.56
2023-06-19T01:01:00,atd,18.57
2023-06-19T01:02:00,atd,19.38
2023-06-19T01:03:00,atd,16.65
2023-06-19T01:04:00,atd,17.10
2023-06-19T01:05:00,atd,16.61
2023-06-19T01:06:00,atd,17.48
2023-06-19T01:07:00,atd,18.28
2023-06-19T01:08:00,atd,20.21
2023-06-19T01:09:00,atd,17.54
2023-06-19T01:10:00,atd,19.71
2023-06-19T01:11:00,atd,16.36
2023-06-19T01:12:00,atd,19.57
2023-06-19T01:13:00,atd,22.23
2023-06-19T01:14:00,atd,21.12
2023-06-19T01:15:00,atd,19.29
2023-06-19T01:16:00,atd,30.61
2023-06-19T01:17:00,atd,17.47
2023-06-19T01:18:00,atd,17.33
2023-06-19T01:19:00,atd,17.00
2023-06-19T01:20:00,atd,18.13
2023-06-19T01:21:00,atd,18.21
2023-06-19T01:22:00,atd,17.58
2023-06-19T01:23:00,atd,16.30
2023-06-19T01:24:00,atd,15.11
2023-06-19T01:25:00,atd,18.17
2023-06-19T01:26:00,atd,15.22
2023-06-19T01:27:00,atd,18.74
2023-06-19T01:28:00,atd,20.68
2023-06-19T01:29:00,atd,20.62
2023-06-19T01:30:00,atd,22.26
2023-06-19T01:31:00,atd,20.35
2023-06-19T01:32:00,atd,17.71
2023-06-19T01:33:00,atd,17.88
2023-06-19T01:34:00,atd,16.14
2023-06-19T01:35:00,atd,26.61
2023-06-19T01:36:00,atd,14.53
2023-06-19T01:37:00,atd,14.09
2023-06-19T01:38:00,atd,15.79
2023-06-19T01:39:00,atd,14.06
2023-06-19T01:40:00,atd,17.82
2023-06-19T01:41:00,atd,20.02
2023-06-19T01:42:00,atd,19.37
2023-06-19T01:43:00,atd,18.30
2023-06-19T01:44:00,atd,19.83
2023-06-19T01:45:00,atd,19.41
2023-06-19T01:46:00,atd,19.96
2023-06-19T01:47:00,atd,19.37
2023-06-19T01:48:00,atd,18.30
2023-06-19T01:49:00,atd,17.20
2023-06-19T01:50:00,atd,18.76
2023-06-19T01:51:00,atd,18.14
2023-06-19T01:52:00,atd,16.17
2023-06-19T01:53:00,atd,15.27
2023-06-19T01:54:00,atd,27.02
2023-06-19T01:55:00,atd,17.30
2023-06-19T01:56:00,atd,16.28
2023-06-19T01:57:00,atd,18.54
2023-06-19T01:58:00,atd,20.85
2023-06-19T01:59:00,atd,21.13
2023-06-19T02:00:00,atd,20.80
2023-06-19T02:01:00,atd,20.96
2023-06-19T02:02:00,atd,24.15
2023-06-19T02:03:00,atd,20.02
2023-06-19T02:04:00,atd,20.79
2023-06-19T02:05:00,atd,20.06
2023-06-19T02:06:00,atd,18.85
2023-06-19T02:07:00,atd,20.75
2023-06-19T02:08:00,atd,22.25
2023-06-19T02:09:00,atd,23.32
2023-06-19T02:10:00,atd,21.05
2023-06-19T02:11:00,atd,20.39
2023-06-19T02:12:00,atd,19.35
2023-06-19T02:13:00,atd,17.34
2023-06-19T02:14:00,atd,17.91
2023-06-19T02:15:00,atd,18.91
2023-06-19T02:16:00,atd,19.94
2023-06-19T02:17:00,atd,16.81
2023-06-19T02:18:00,atd,29.63
2023-06-19T02:19:00,atd,31.06
2023-06-19T02:20:00,atd,32.67
2023-06-19T02:21:00,atd,31.45
2023-06-19T02:22:00,atd,18.96
2023-06-19T02:23:00,atd,21.12
2023-06-19T02:24:00,atd,21.47
2023-06-19T02:25:00,atd,22.10
2023-06-19T02:26:00,atd,20.66
2023-06-19T02:27:00,atd,19.67
2023-06-19T02:28:00,atd,19.87
2023-06-19T02:29:00,atd,16.58
2023-06-19T02:30:00,atd,17.11
2023-06-19T02:31:00,atd,17.36
2023-06-19T02:32:00,atd,20.76
2023-06-19T02:33:00,atd,20.40
2023-06-19T02:34:00,atd,19.15
2023-06-19T02:35:00,atd,17.52
2023-06-19T02:36:00,atd,18.39
2023-06-19T02:37:00,atd,20.98
2023-06-19T02:38:00,atd,18.63
2023-06-19T02:39:00,atd,19.09
2023-06-19T02:40:00,atd,19.94
2023-06-19T02:41:00,atd,19.89
2023-06-19T02:42:00,atd,15.82
2023-06-19T02:43:00,atd,16.00
2023-06-19T02:44:00,atd,14.40
2023-06-19T02:45:00,atd,16.95
2023-06-19T02:46:00,atd,20.80
2023-06-19T02:47:00,atd,18.73
2023-06-19T02:48:00,atd,18.65
2023-06-19T02:49:00,atd,16.74
2023-06-19T02:50:00,atd,16.57
2023-06-19T02:51:00,atd,16.09
2023-06-19T02:52:00,atd,20.18
2023-06-19T02:53:00,atd,19.58
2023-06-19T02:54:00,atd,18.47
2023-06-19T02:55:00,atd,19.25
2023-06-19T02:56:00,atd,22.43
2023-06-19T02:57:00,atd,17.93
2023-06-19T02:58:00,atd,17.44
2023-06-19T02:59:00,atd,18.51
2023-06-19T03:00:00,atd,18.12
2023-06-19T03:01:00,atd,18.23
2023-06-19T03:02:00,atd,17.38
2023-06-19T03:03:00,atd,15.75
2023-06-19T03:04:00,atd,16.87
2023-06-19T03:05:00,atd,15.68
2023-06-19T03:06:00,atd,16.79
2023-06-19T03:07:00,atd,17.15
2023-06-19T03:08:00,atd,18.97
2023-06-19T03:09:00,atd,19.39
2023-06-19T03:10:00,atd,20.46
2023-06-19T03:11:00,atd,18.48
2023-06-19T03:12:00,atd,17.21
2023-06-19T03:13:00,atd,18.39
2023-06-19T03:14:00,atd,19.85
2023-06-19T03:15:00,atd,17.53
2023-06-19T03:16:00,atd,15.26
2023-06-19T03:17:00,atd,18.99
2023-06-19T03:18:00,atd,16.93
2023-06-19T03:19:00,atd,18.78
2023-06-19T03:20:00,atd,16.04
2023-06-19T03:21:00,atd,16.05
2023-06-19T03:22:00,atd,20.52
2023-06-19T03:23:00,atd,21.88
2023-06-19T03:24:00,atd,19.75
2023-06-19T03:25:00,atd,19.07
2023-06-19T03:26:00,atd,18.47
2023-06-19T03:27:00,atd,16.24
2023-06-19T03:28:00,atd,15.63
2023-06-19T03:29:00,atd,28.26
2023-06-19T03:30:00,atd,16.32
2023-06-19T03:31:00,atd,17.04
2023-06-19T03:32:00,atd,17.43
2023-06-19T03:33:00,atd,15.53
2023-06-19T03:34:00,atd,17.27
2023-06-19T03:35:00,atd,17.68
2023-06-19T03:36:00,atd,18.38
2023-06-19T03:37:00,atd,19.70
2023-06-19T03:38:00,atd,20.32
2023-06-19T03:39:00,atd,22.41
2023-06-19T03:40:00,atd,22.98
2023-06-19T03:41:00,atd,22.30
2023-06-19T03:42:00,atd,21.10
2023-06-19T03:43:00,atd,22.01
2023-06-19T03:44:00,atd,22.45
2023-06-19T03:45:00,atd,21.08
2023-06-19T03:46:00,atd,21.36
2023-06-19T03:47:00,atd,21.70
2023-06-19T03:48:00,atd,19.88
2023-06-19T03:49:00,atd,17.20
2023-06-19T03:50:00,atd,21.71
2023-06-19T03:51:00,atd,24.72
2023-06-19T03:52:00,atd,26.56
2023-06-19T03:53:00,atd,26.65
2023-06-19T03:54:00,atd,27.04
2023-06-19T03:55:00,atd,18.12
2023-06-19T03:56:00,atd,19.14
2023-06-19T03:57:00,atd,16.82
2023-06-19T03:58:00,atd,16.39
2023-06-19T03:59:00,atd,19.51
2023-06-19T04:00:00,atd,16.26
2023-06-19T04:01:00,atd,16.23
2023-06-19T04:02:00,atd,17.20
2023-06-19T04:03:00,atd,17.29
2023-06-19T04:04:00,atd,17.23
2023-06-19T04:05:00,atd,16.07
2023-06-19T04:06:00,atd,16.90
2023-06-19T04:07:00,atd,30.28
2023-06-19T04:08:00,atd,19.65
2023-06-19T04:09:00,atd,18.16
2023-06-19T04:10:00,atd,18.10
2023-06-19T04:11:00,atd,18.64
2023-06-19T04:12:00,atd,19.75
2023-06-19T04:13:00,atd,25.70
2023-06-19T04:14:00,atd,25.22
2023-06-19T04:15:00,atd,24.88
2023-06-19T04:16:00,atd,23.29
2023-06-19T04:17:00,atd,24.33
2023-06-19T04:18:00,atd,24.42
2023-06-19T04:19:00,atd,22.80
2023-06-19T04:20:00,atd,23.26
2023-06-19T04:21:00,atd,24.45
2023-06-19T04:22:00,atd,26.62
2023-06-19T04:23:00,atd,25.08
2023-06-19T04:24:00,atd,23.78
2023-06-19T04:25:00,atd,25.48
2023-06-19T04:26:00,atd,22.68
2023-06-19T04:27:00,atd,21.86
2023-06-19T04:28:00,atd,25.18
2023-06-19T04:29:00,atd,24.06
2023-06-19T04:30:00,atd,21.58
2023-06-19T04:31:00,atd,18.46
2023-06-19T04:32:00,atd,16.93
2023-06-19T04:33:00,atd,15.70
2023-06-19T04:34:00,atd,14.71
2023-06-19T04:35:00,atd,14.17
2023-06-19T04:36:00,atd,15.59
2023-06-19T04:37:00,atd,18.01
2023-06-19T04:38:00,atd,17.86
2023-06-19T04:39:00,atd,22.02
2023-06-19T04:40:00,atd,22.54
2023-06-19T04:41:00,atd,23.25
2023-06-19T04:42:00,atd,21.82
2023-06-19T04:43:00,atd,20.38
2023-06-19T04:44:00,atd,21.27
2023-06-19T04:45:00,atd,19.00
2023-06-19T04:46:00,atd,17.09
2023-06-19T04:47:00,atd,17.01
2023-06-19T04:48:00,atd,14.71
2023-06-19T04:49:00,atd,13.98
2023-06-19T04:50:00,atd,17.08
2023-06-19T04:51:00,atd,15.22
2023-06-19T04:52:00,atd,15.59
2023-06-19T04:53:00,atd,22.34
2023-06-19T04:54:00,atd,22.69
2023-06-19T04:55:00,atd,22.38
2023-06-19T04:56:00,atd,25.65
2023-06-19T04:57:00,atd,20.87
2023-06-19T04:58:00,atd,17.34
2023-06-19T04:59:00,atd,20.69
2023-06-19T05:00:00,atd,18.35
2023-06-19T05:01:00,atd,16.01
2023-06-19T05:02:00,atd,18.98
2023-06-19T05:03:00,atd,14.52
2023-06-19T05:04:00,atd,14.52
2023-06-19T05:05:00,atd,16.21
2023-06-19T05:06:00,atd,13.93
2023-06-19T05:07:00,atd,14.38
2023-06-19T05:08:00,atd,19.14
2023-06-19T05:09:00,atd,19.25
2023-06-19T05:10:00,atd,17.66
2023-06-19T05:11:00,atd,19.01
2023-06-19T05:12:00,atd,20.37
2023-06-19T05:13:00,atd,16.96
2023-06-19T05:14:00,atd,17.26
2023-06-19T05:15:00,atd,18.80
2023-06-19T05:16:00,atd,18.91
2023-06-19T05:17:00,atd,17.82
2023-06-19T05:18:00,atd,18.16
2023-06-19T05:19:00,atd,17.44
2023-06-19T05:20:00,atd,18.85
2023-06-19T05:21:00,atd,16.78
2023-06-19T05:22:00,atd,18.02
2023-06-19T05:23:00,atd,29.56
2023-06-19T05:24:00,atd,21.55
2023-06-19T05:25:00,atd,18.58
2023-06-19T05:26:00,atd,18.40
2023-06-19T05:27:00,atd,20.84
2023-06-19T05:28:00,atd,20.37
2023-06-19T05:29:00,atd,18.92
2023-06-19T05:30:00,atd,17.54
2023-06-19T05:31:00,atd,19.36
2023-06-19T05:32:00,atd,23.60
2023-06-19T05:33:00,atd,22.60
2023-06-19T05:34:00,atd,21.22
2023-06-19T05:35:00,atd,22.54
2023-06-19T05:36:00,atd,20.93
2023-06-19T05:37:00,atd,20.75
2023-06-19T05:38:00,atd,20.98
2023-06-19T05:39:00,atd,24.70
2023-06-19T05:40:00,atd,38.41
2023-06-19T05:41:00,atd,36.81
2023-06-19T05:42:00,atd,47.14
2023-06-19T05:43:00,atd,36.56
2023-06-19T05:44:00,atd,22.46
2023-06-19T05:45:00,atd,23.39
2023-06-19T05:46:00,atd,26.16
2023-06-19T05:47:00,atd,24.90
2023-06-19T05:48:00,atd,24.59
2023-06-19T05:49:00,atd,21.86
2023-06-19T05:50:00,atd,22.81
2023-06-19T05:51:00,atd,24.30
2023-06-19T05:52:00,atd,20.70
2023-06-19T05:53:00,atd,21.67
2023-06-19T05:54:00,atd,24.89
2023-06-19T05:55:00,atd,23.10
2023-06-19T05:56:00,atd,23.05
2023-06-19T05:57:00,atd,25.64
2023-06-19T05:58:00,atd,24.48
2023-06-19T05:59:00,atd,31.73
2023-06-19T06:00:00,atd,24.09
2023-06-19T06:01:00,atd,22.65
2023-06-19T06:02:00,atd,21.46
2023-06-19T06:03:00,atd,23.43
2023-06-19T06:04:00,atd,23.01
2023-06-19T06:05:00,atd,22.05
2023-06-19T06:06:00,atd,23.07
2023-06-19T06:07:00,atd,21.04
2023-06-19T06:08:00,atd,24.18
2023-06-19T06:09:00,atd,23.89
2023-06-19T06:10:00,atd,27.19
2023-06-19T06:11:00,atd,23.31
2023-06-19T06:12:00,atd,24.68
2023-06-19T06:13:00,atd,23.87
2023-06-19T06:14:00,atd,23.77
2023-06-19T06:15:00,atd,21.43
2023-06-19T06:16:00,atd,33.95
2023-06-19T06:17:00,atd,24.03
2023-06-19T06:18:00,atd,20.60
2023-06-19T06:19:00,atd,22.16
2023-06-19T06:20:00,atd,21.74
2023-06-19T06:21:00,atd,25.59
2023-06-19T06:22:00,atd,32.99
2023-06-19T06:23:00,atd,24.02
2023-06-19T06:24:00,atd,22.56
2023-06-19T06:25:00,atd,24.80
2023-06-19T06:26:00,atd,25.87
2023-06-19T06:27:00,atd,22.55
2023-06-19T06:28:00,atd,22.94
2023-06-19T06:29:00,atd,24.85
2023-06-19T06:30:00,atd,20.21
2023-06-19T06:31:00,atd,19.91
2023-06-19T06:32:00,atd,22.24
2023-06-19T06:33:00,atd,23.78
2023-06-19T06:34:00,atd,33.79
2023-06-19T06:35:00,atd,22.28
2023-06-19T06:36:00,atd,22.72
2023-06-19T06:37:00,atd,21.95
2023-06-19T06:38:00,atd,23.99
2023-06-19T06:39:00,atd,26.36
2023-06-19T06:40:00,atd,29.65
2023-06-19T06:41:00,atd,26.39
2023-06-19T06:42:00,atd,26.86
2023-06-19T06:43:00,atd,23.81
2023-06-19T06:44:00,atd,24.03
2023-06-19T06:45:00,atd,18.96
2023-06-19T06:46:00,atd,21.13
2023-06-19T06:47:00,atd,21.90
2023-06-19T06:48:00,atd,20.83
2023-06-19T06:49:00,atd,20.95
2023-06-19T06:50:00,atd,20.70
2023-06-19T06:51:00,atd,21.79
2023-06-19T06:52:00,atd,19.10
2023-06-19T06:53:00,atd,22.84
2023-06-19T06:54:00,atd,24.56
2023-06-19T06:55:00,atd,24.63
2023-06-19T06:56:00,atd,28.64
2023-06-19T06:57:00,atd,31.47
2023-06-19T06:58:00,atd,27.77
2023-06-19T06:59:00,atd,26.07
2023-06-19T07:00:00,atd,29.85
2023-06-19T07:01:00,atd,27.53
2023-06-19T07:02:00,atd,29.68
2023-06-19T07:03:00,atd,30.43
2023-06-19T07:04:00,atd,35.27
2023-06-19T07:05:00,atd,26.09
2023-06-19T07:06:00,atd,26.73
2023-06-19T07:07:00,atd,27.90
2023-06-19T07:08:00,atd,36.96
2023-06-19T07:09:00,atd,30.16
2023-06-19T07:10:00,atd,34.72
2023-06-19T07:11:00,atd,25.68
2023-06-19T07:12:00,atd,24.81
2023-06-19T07:13:00,atd,26.33
2023-06-19T07:14:00,atd,24.73
2023-06-19T07:15:00,atd,28.98
2023-06-19T07:16:00,atd,23.33
2023-06-19T07:17:00,atd,21.89
2023-06-19T07:18:00,atd,24.03
2023-06-19T07:19:00,atd,22.56
2023-06-19T07:20:00,atd,22.49
2023-06-19T07:21:00,atd,22.03
2023-06-19T07:22:00,atd,21.28
2023-06-19T07:23:00,atd,18.68
2023-06-19T07:24:00,atd,22.03
2023-06-19T07:25:00,atd,19.77
2023-06-19T07:26:00,atd,22.21
2023-06-19T07:27:00,atd,22.05
2023-06-19T07:28:00,atd,22.74
2023-06-19T07:29:00,atd,23.82
2023-06-19T07:30:00,atd,23.28
2023-06-19T07:31:00,atd,23.08
2023-06-19T07:32:00,atd,21.96
2023-06-19T07:33:00,atd,24.33
2023-06-19T07:34:00,atd,24.68
2023-06-19T07:35:00,atd,22.19
2023-06-19T07:36:00,atd,20.74
2023-06-19T07:37:00,atd,22.15
2023-06-19T07:38:00,atd,19.85
2023-06-19T07:39:00,atd,20.33
2023-06-19T07:40:00,atd,29.28
2023-06-19T07:41:00,atd,19.64
2023-06-19T07:42:00,atd,27.22
2023-06-19T07:43:00,atd,21.86
2023-06-19T07:44:00,atd,20.34
2023-06-19T07:45:00,atd,20.98
2023-06-19T07:46:00,atd,21.93
2023-06-19T07:47:00,atd,20.57
2023-06-19T07:48:00,atd,22.07
2023-06-19T07:49:00,atd,24.23
2023-06-19T07:50:00,atd,21.81
2023-06-19T07:51:00,atd,19.27
2023-06-19T07:52:00,atd,23.44
2023-06-19T07:53:00,atd,23.66
2023-06-19T07:54:00,atd,19.80
2023-06-19T07:55:00,atd,21.79
2023-06-19T07:56:00,atd,22.51
2023-06-19T07:57:00,atd,34.50
2023-06-19T07:58:00,atd,22.37
2023-06-19T07:59:00,atd,22.51
2023-06-19T08:00:00,atd,21.76
2023-06-19T08:01:00,atd,22.42
2023-06-19T08:02:00,atd,22.23
2023-06-19T08:03:00,atd,23.89
2023-06-19T08:04:00,atd,22.58
2023-06-19T08:05:00,atd,23.74
2023-06-19T08:06:00,atd,23.59
2023-06-19T08:07:00,atd,24.29
2023-06-19T08:08:00,atd,23.30
2023-06-19T08:09:00,atd,23.29
2023-06-19T08:10:00,atd,30.75
2023-06-19T08:11:00,atd,33.78
2023-06-19T08:12:00,atd,32.39
2023-06-19T08:13:00,atd,59.08
2023-06-19T08:14:00,atd,64.02
2023-06-19T08:15:00,atd,65.98
2023-06-19T08:16:00,atd,66.47
2023-06-19T08:17:00,atd,63.42
2023-06-19T08:18:00,atd,64.24
2023-06-19T08:19:00,atd,29.86
2023-06-19T08:20:00,atd,27.27
2023-06-19T08:21:00,atd,28.40
2023-06-19T08:22:00,atd,29.48
2023-06-19T08:23:00,atd,29.56
2023-06-19T08:24:00,atd,28.93
2023-06-19T08:25:00,atd,31.43
2023-06-19T08:26:00,atd,29.27
2023-06-19T08:27:00,atd,31.95
2023-06-19T08:28:00,atd,32.11
2023-06-19T08:29:00,atd,33.04
2023-06-19T08:30:00,atd,41.90
2023-06-19T08:31:00,atd,28.94
2023-06-19T08:32:00,atd,29.13
2023-06-19T08:33:00,atd,26.99
2023-06-19T08:34:00,atd,29.55
2023-06-19T08:35:00,atd,26.04
2023-06-19T08:36:00,atd,27.22
2023-06-19T08:37:00,atd,26.95
2023-06-19T08:38:00,atd,25.24
2023-06-19T08:39:00,atd,26.45
2023-06-19T08:40:00,atd,29.39
2023-06-19T08:41:00,atd,27.69
2023-06-19T08:42:00,atd,29.14
2023-06-19T08:43:00,atd,28.56
2023-06-19T08:44:00,atd,29.15
2023-06-19T08:45:00,atd,28.15
2023-06-19T08:46:00,atd,37.61
2023-06-19T08:47:00,atd,64.98
2023-06-19T08:48:00,atd,68.67
2023-06-19T08:49:00,atd,71.76
2023-06-19T08:50:00,atd,29.15
2023-06-19T08:51:00,atd,26.80
2023-06-19T08:52:00,atd,41.16
2023-06-19T08:53:00,atd,38.40
2023-06-19T08:54:00,atd,39.48
2023-06-19T08:55:00,atd,39.83
2023-06-19T08:56:00,atd,28.47
2023-06-19T08:57:00,atd,29.01
2023-06-19T08:58:00,atd,29.03
2023-06-19T08:59:00,atd,24.72
2023-06-19T09:00:00,atd,27.72
2023-06-19T09:01:00,atd,28.74
2023-06-19T09:02:00,atd,26.44
2023-06-19T09:03:00,atd,30.77
2023-06-19T09:04:00,atd,30.05
2023-06-19T09:05:00,atd,28.82
2023-06-19T09:06:00,atd,31.72
2023-06-19T09:07:00,atd,32.77
2023-06-19T09:08:00,atd,31.52
2023-06-19T09:09:00,atd,33.17
2023-06-19T09:10:00,atd,29.36
2023-06-19T09:11:00,atd,28.98
2023-06-19T09:12:00,atd,31.64
2023-06-19T09:13:00,atd,33.59
2023-06-19T09:14:00,atd,34.96
2023-06-19T09:15:00,atd,29.29
2023-06-19T09:16:00,atd,29.45
2023-06-19T09:17:00,atd,30.38
2023-06-19T09:18:00,atd,25.78
2023-06-19T09:19:00,atd,37.63
2023-06-19T09:20:00,atd,24.59
2023-06-19T09:21:00,atd,25.51
2023-06-19T09:22:00,atd,23.60
2023-06-19T09:23:00,atd,27.63
2023-06-19T09:24:00,atd,30.34
2023-06-19T09:25:00,atd,30.91
2023-06-19T09:26:00,atd,73.00
2023-06-19T09:27:00,atd,70.23
2023-06-19T09:28:00,atd,31.08
2023-06-19T09:29:00,atd,26.92
2023-06-19T09:30:00,atd,26.51
2023-06-19T09:31:00,atd,27.38
2023-06-19T09:32:00,atd,25.85
2023-06-19T09:33:00,atd,25.80
2023-06-19T09:34:00,atd,24.55
2023-06-19T09:35:00,atd,28.24
2023-06-19T09:36:00,atd,28.49
2023-06-19T09:37:00,atd,28.57
2023-06-19T09:38:00,atd,30.03
2023-06-19T09:39:00,atd,33.79
2023-06-19T09:40:00,atd,31.58
2023-06-19T09:41:00,atd,31.41
2023-06-19T09:42:00,atd,34.20
2023-06-19T09:43:00,atd,32.68
2023-06-19T09:44:00,atd,30.51
2023-06-19T09:45:00,atd,33.71
2023-06-19T09:46:00,atd,30.19
2023-06-19T09:47:00,atd,28.57
2023-06-19T09:48:00,atd,29.80
2023-06-19T09:49:00,atd,29.82
2023-06-19T09:50:00,atd,30.32
2023-06-19T09:51:00,atd,30.87
2023-06-19T09:52:00,atd,30.48
2023-06-19T09:53:00,atd,40.85
2023-06-19T09:54:00,atd,32.91
2023-06-19T09:55:00,atd,30.59
2023-06-19T09:56:00,atd,31.20
2023-06-19T09:57:00,atd,33.24
2023-06-19T09:58:00,atd,32.85
2023-06-19T09:59:00,atd,29.35
2023-06-19T10:00:00,atd,30.94
2023-06-19T10:01:00,atd,28.95
2023-06-19T10:02:00,atd,59.11
2023-06-19T10:03:00,atd,62.34
2023-06-19T10:04:00,atd,27.91
2023-06-19T10:05:00,atd,25.48
2023-06-19T10:06:00,atd,27.43
2023-06-19T10:07:00,atd,26.56
2023-06-19T10:08:00,atd,26.81
2023-06-19T10:09:00,atd,39.37
2023-06-19T10:10:00,atd,42.09
2023-06-19T10:11:00,atd,40.43
2023-06-19T10:12:00,atd,40.01
2023-06-19T10:13:00,atd,39.84
2023-06-19T10:14:00,atd,30.84
2023-06-19T10:15:00,atd,30.56
2023-06-19T10:16:00,atd,29.24
2023-06-19T10:17:00,atd,27.11
2023-06-19T10:18:00,atd,30.04
2023-06-19T10:19:00,atd,30.25
2023-06-19T10:20:00,atd,28.58
2023-06-19T10:21:00,atd,25.33
2023-06-19T10:22:00,atd,28.55
2023-06-19T10:23:00,atd,30.29
2023-06-19T10:24:00,atd,65.87
2023-06-19T10:25:00,atd,72.54
2023-06-19T10:26:00,atd,75.97
2023-06-19T10:27:00,atd,72.43
2023-06-19T10:28:00,atd,29.89
2023-06-19T10:29:00,atd,31.22
2023-06-19T10:30:00,atd,30.44
2023-06-19T10:31:00,atd,25.33
2023-06-19T10:32:00,atd,25.54
2023-06-19T10:33:00,atd,23.73
2023-06-19T10:34:00,atd,26.73
2023-06-19T10:35:00,atd,27.97
2023-06-19T10:36:00,atd,29.75
2023-06-19T10:37:00,atd,29.32
2023-06-19T10:38:00,atd,27.13
2023-06-19T10:39:00,atd,26.37
2023-06-19T10:40:00,atd,56.05
2023-06-19T10:41:00,atd,64.12
2023-06-19T10:42:00,atd,65.79
2023-06-19T10:43:00,atd,63.85
2023-06-19T10:44:00,atd,69.32
2023-06-19T10:45:00,atd,35.70
2023-06-19T10:46:00,atd,33.01
2023-06-19T10:47:00,atd,30.37
2023-06-19T10:48:00,atd,30.60
2023-06-19T10:49:00,atd,28.82
2023-06-19T10:50:00,atd,30.27
2023-06-19T10:51:00,atd,28.69
2023-06-19T10:52:00,atd,30.48
2023-06-19T10:53:00,atd,32.62
2023-06-19T10:54:00,atd,33.66
2023-06-19T10:55:00,atd,33.69
2023-06-19T10:56:00,atd,74.59
2023-06-19T10:57:00,atd,75.50
2023-06-19T10:58:00,atd,79.23
2023-06-19T10:59:00,atd,78.41
2023-06-19T11:00:00,atd,88.36
2023-06-19T11:01:00,atd,31.64
2023-06-19T11:02:00,atd,30.25
2023-06-19T11:03:00,atd,29.39
2023-06-19T11:04:00,atd,28.05
2023-06-19T11:05:00,atd,31.02
2023-06-19T11:06:00,atd,28.55
2023-06-19T11:07:00,atd,27.76
2023-06-19T11:08:00,atd,28.60
2023-06-19T11:09:00,atd,30.10
2023-06-19T11:10:00,atd,32.23
2023-06-19T11:11:00,atd,30.62
2023-06-19T11:12:00,atd,65.26
2023-06-19T11:13:00,atd,69.15
2023-06-19T11:14:00,atd,71.13
2023-06-19T11:15:00,atd,71.06
2023-06-19T11:16:00,atd,66.10
2023-06-19T11:17:00,atd,79.44
2023-06-19T11:18:00,atd,66.37
2023-06-19T11:19:00,atd,30.41
2023-06-19T11:20:00,atd,31.61
2023-06-19T11:21:00,atd,30.07
2023-06-19T11:22:00,atd,29.23
2023-06-19T11:23:00,atd,31.15
2023-06-19T11:24:00,atd,31.75
2023-06-19T11:25:00,atd,32.16
2023-06-19T11:26:00,atd,33.77
2023-06-19T11:27:00,atd,34.57
2023-06-19T11:28:00,atd,76.19
2023-06-19T11:29:00,atd,75.99
2023-06-19T11:30:00,atd,81.68
2023-06-19T11:31:00,atd,79.16
2023-06-19T11:32:00,atd,76.49
2023-06-19T11:33:00,atd,88.08
2023-06-19T11:34:00,atd,36.48
2023-06-19T11:35:00,atd,32.55
2023-06-19T11:36:00,atd,33.66
2023-06-19T11:37:00,atd,33.29
2023-06-19T11:38:00,atd,31.58
2023-06-19T11:39:00,atd,32.31
2023-06-19T11:40:00,atd,45.20
2023-06-19T11:41:00,atd,77.87
2023-06-19T11:42:00,atd,82.57
2023-06-19T11:43:00,atd,83.92
2023-06-19T11:44:00,atd,81.47
2023-06-19T11:45:00,atd,68.01
2023-06-19T11:46:00,atd,66.52
2023-06-19T11:47:00,atd,67.88
2023-06-19T11:48:00,atd,68.07
2023-06-19T11:49:00,atd,68.96
2023-06-19T11:50:00,atd,71.99
2023-06-19T11:51:00,atd,72.75
2023-06-19T11:52:00,atd,71.20
2023-06-19T11:53:00,atd,68.51
2023-06-19T11:54:00,atd,65.33
2023-06-19T11:55:00,atd,29.13
2023-06-19T11:56:00,atd,29.23
2023-06-19T11:57:00,atd,27.89
2023-06-19T11:58:00,atd,26.24
2023-06-19T11:59:00,atd,30.73
2023-06-19T12:00:00,atd,27.43
2023-06-19T12:01:00,atd,30.15
2023-06-19T12:02:00,atd,73.27
2023-06-19T12:03:00,atd,73.76
2023-06-19T12:04:00,atd,76.73
2023-06-19T12:05:00,atd,72.06
2023-06-19T12:06:00,atd,72.51
2023-06-19T12:07:00,atd,75.64
2023-06-19T12:08:00,atd,78.26
2023-06-19T12:09:00,atd,79.89
2023-06-19T12:10:00,atd,82.10
2023-06-19T12:11:00,atd,74.43
2023-06-19T12:12:00,atd,31.35
2023-06-19T12:13:00,atd,42.63
2023-06-19T12:14:00,atd,26.89
2023-06-19T12:15:00,atd,38.95
2023-06-19T12:16:00,atd,37.52
2023-06-19T12:17:00,atd,39.84
2023-06-19T12:18:00,atd,39.57
2023-06-19T12:19:00,atd,26.76
2023-06-19T12:20:00,atd,72.42
2023-06-19T12:21:00,atd,75.39
2023-06-19T12:22:00,atd,77.04
2023-06-19T12:23:00,atd,78.64
2023-06-19T12:24:00,atd,74.79
2023-06-19T12:25:00,atd,76.70
2023-06-19T12:26:00,atd,80.20
2023-06-19T12:27:00,atd,30.23
2023-06-19T12:28:00,atd,27.02
2023-06-19T12:29:00,atd,27.31
2023-06-19T12:30:00,atd,27.03
2023-06-19T12:31:00,atd,27.65
2023-06-19T12:32:00,atd,28.77
2023-06-19T12:33:00,atd,30.26
2023-06-19T12:34:00,atd,66.33
2023-06-19T12:35:00,atd,69.23
2023-06-19T12:36:00,atd,72.92
2023-06-19T12:37:00,atd,72.06
2023-06-19T12:38:00,atd,74.81
2023-06-19T12:39:00,atd,73.02
2023-06-19T12:40:00,atd,72.48
2023-06-19T12:41:00,atd,67.17
2023-06-19T12:42:00,atd,65.60
2023-06-19T12:43:00,atd,68.39
2023-06-19T12:44:00,atd,29.47
2023-06-19T12:45:00,atd,31.18
2023-06-19T12:46:00,atd,30.00
2023-06-19T12:47:00,atd,28.53
2023-06-19T12:48:00,atd,30.45
2023-06-19T12:49:00,atd,31.33
2023-06-19T12:50:00,atd,30.98
2023-06-19T12:51:00,atd,75.04
2023-06-19T12:52:00,atd,89.63
2023-06-19T12:53:00,atd,78.68
2023-06-19T12:54:00,atd,88.86
2023-06-19T12:55:00,atd,90.04
2023-06-19T12:56:00,atd,90.47
2023-06-19T12:57:00,atd,87.01
2023-06-19T12:58:00,atd,85.75
2023-06-19T12:59:00,atd,40.83
2023-06-19T13:00:00,atd,40.70
2023-06-19T13:01:00,atd,30.38
2023-06-19T13:02:00,atd,27.93
2023-06-19T13:03:00,atd,29.29
2023-06-19T13:04:00,atd,27.45
2023-06-19T13:05:00,atd,29.55
2023-06-19T13:06:00,atd,32.65
2023-06-19T13:07:00,atd,64.78
2023-06-19T13:08:00,atd,74.20
2023-06-19T13:09:00,atd,76.86
2023-06-19T13:10:00,atd,77.98
2023-06-19T13:11:00,atd,75.85
2023-06-19T13:12:00,atd,68.82
2023-06-19T13:13:00,atd,67.26
2023-06-19T13:14:00,atd,68.63
2023-06-19T13:15:00,atd,69.71
2023-06-19T13:16:00,atd,81.86
2023-06-19T13:17:00,atd,83.87
2023-06-19T13:18:00,atd,77.28